INTELSAT 25 (IS-25)

Last updated on Wed May 14 2025 00:02:42 GMT+0000 (Coordinated Universal Time)

1 33153U 08034A 25133.48581375 -.00000207 00000+0 00000+0 0 9993 2 33153 1.6763 85.2780 0003224 330.1040 319.5035 1.00271465 61685
UTC large
Height (km)
Speed (km/s)
/
Latitude / Longitude
Inclination (degrees)
Orbital Period (minutes)
Azimuth
Elevation
Range (km)
Doppler Factor

Next 0 passes for location: London (51.5072 / 0.1276)

Sorry there are no passes over London.